• In Portugal
  • List of Countries
  • For 7 days
  • Water Temperature
  • Satellite Maps
  • Weather Map
  • Weather Widgets
  • user-avatar
    Login

    Hourly Weather Glinno

    Today, 20 July, Friday

    Time Temperature Precipitation Wind Pressure Humidity
    00:00 +15°C° 0 mm 2 mps 712 mmHg 94%
    01:00 +14°C° 0 mm 2 mps 712 mmHg 94%
    02:00 +14°C° 0 mm 2 mps 712 mmHg 94%
    03:00 +14°C° 0 mm 2 mps 712 mmHg 95%
    04:00 +14°C° 0 mm 2 mps 712 mmHg 95%
    05:00 +15°C° 0 mm 2 mps 712 mmHg 89%
    06:00 +16°C° 0 mm 2 mps 712 mmHg 83%
    07:00 +17°C° 0 mm 2 mps 712 mmHg 77%
    08:00 +19°C° 0 mm 2 mps 712 mmHg 69%
    09:00 +20°C° 0 mm 3 mps 713 mmHg 62%
    10:00 +21°C° 0 mm 3 mps 713 mmHg 55%
    11:00 +22°C° 0 mm 3 mps 713 mmHg 53%
    12:00 +24°C° 0 mm 3 mps 712 mmHg 50%
    13:00 +24°C° 0 mm 3 mps 712 mmHg 47%
    14:00 +25°C° 0 mm 3 mps 712 mmHg 47%
    15:00 +25°C° 0 mm 3 mps 712 mmHg 46%
    16:00 +25°C° 0 mm 3 mps 712 mmHg 46%
    17:00 +23°C° 0 mm 2 mps 712 mmHg 52%
    18:00 +21°C° 0 mm 2 mps 711 mmHg 59%
    19:00 +20°C° 0 mm 2 mps 711 mmHg 65%
    20:00 +19°C° 0 mm 1 mps 711 mmHg 68%
    21:00 +18°C° 0 mm 1 mps 711 mmHg 71%
    22:00 +15°C° 0 mm 1 mps 711 mmHg 74%
    23:00 +15°C° 0 mm 1 mps 711 mmHg 75%

    Tomorrow, 21 July, Saturday

    Time Temperature Precipitation Wind Pressure Humidity
    00:00 +14°C° 0 mm 1 mps 711 mmHg 76%
    01:00 +14°C° 0 mm 1 mps 711 mmHg 77%
    02:00 +14°C° 0 mm 1 mps 711 mmHg 78%
    03:00 +13°C° 0 mm 1 mps 710 mmHg 79%
    04:00 +13°C° 0 mm 1 mps 710 mmHg 80%
    05:00 +15°C° 0 mm 1 mps 710 mmHg 75%
    06:00 +16°C° 0 mm 0 mps 711 mmHg 70%
    07:00 +17°C° 0 mm 0 mps 711 mmHg 65%
    08:00 +19°C° 0 mm 0 mps 711 mmHg 60%
    09:00 +21°C° 0 mm 0 mps 711 mmHg 56%
    10:00 +22°C° 0 mm 0 mps 711 mmHg 51%
    11:00 +25°C° 0 mm 1 mps 711 mmHg 49%
    12:00 +25°C° 0 mm 1 mps 711 mmHg 48%
    13:00 +25°C° 0 mm 1 mps 711 mmHg 46%
    14:00 +25°C° 0 mm 1 mps 711 mmHg 46%
    15:00 +25°C° 0 mm 1 mps 710 mmHg 46%
    16:00 +25°C° 0 mm 1 mps 710 mmHg 46%
    17:00 +24°C° 0 mm 1 mps 710 mmHg 52%
    18:00 +23°C° 0 mm 1 mps 710 mmHg 58%
    19:00 +22°C° 0 mm 1 mps 710 mmHg 64%
    20:00 +20°C° 0 mm 1 mps 710 mmHg 67%
    21:00 +19°C° 0 mm 1 mps 710 mmHg 71%
    22:00 +16°C° 0 mm 1 mps 710 mmHg 74%
    23:00 +16°C° 0 mm 1 mps 710 mmHg 76%

    Day after tomorrow, 22 July, Sunday

    Time Temperature Precipitation Wind Pressure Humidity
    00:00 +15°C° 0 mm 1 mps 710 mmHg 78%
    01:00 +15°C° 0 mm 1 mps 710 mmHg 79%
    02:00 +14°C° 0 mm 1 mps 710 mmHg 80%
    03:00 +14°C° 0 mm 1 mps 709 mmHg 81%
    04:00 +14°C° 0 mm 1 mps 709 mmHg 82%
    05:00 +15°C° 0 mm 1 mps 710 mmHg 77%
    06:00 +18°C° 0 mm 1 mps 710 mmHg 72%
    07:00 +20°C° 0 mm 1 mps 710 mmHg 67%
    08:00 +21°C° 0 mm 1 mps 710 mmHg 63%
    09:00 +22°C° 0 mm 1 mps 710 mmHg 58%
    10:00 +24°C° 0 mm 2 mps 711 mmHg 53%
    11:00 +24°C° 0 mm 2 mps 710 mmHg 51%
    12:00 +25°C° 0 mm 2 mps 710 mmHg 49%
    13:00 +25°C° 0 mm 2 mps 710 mmHg 47%
    14:00 +25°C° 0 mm 2 mps 710 mmHg 47%
    15:00 +25°C° 0 mm 2 mps 710 mmHg 47%
    16:00 +25°C° 0 mm 2 mps 710 mmHg 48%
    17:00 +24°C° 0 mm 2 mps 709 mmHg 53%
    18:00 +23°C° 0 mm 2 mps 709 mmHg 59%
    19:00 +20°C° 0 mm 2 mps 709 mmHg 65%
    20:00 +19°C° 0 mm 2 mps 709 mmHg 68%
    21:00 +19°C° 0 mm 1 mps 709 mmHg 71%
    22:00 +16°C° 0 mm 1 mps 709 mmHg 73%
    23:00 +16°C° 0 mm 1 mps 709 mmHg 75%

    23 July, Monday

    Time Temperature Precipitation Wind Pressure Humidity
    00:00 +15°C° 0 mm 1 mps 709 mmHg 77%
    01:00 +15°C° 0 mm 1 mps 709 mmHg 79%
    02:00 +15°C° 0 mm 1 mps 709 mmHg 81%
    03:00 +14°C° 0 mm 1 mps 709 mmHg 83%
    04:00 +14°C° 0 mm 1 mps 709 mmHg 84%
    05:00 +15°C° 0 mm 2 mps 709 mmHg 81%
    06:00 +17°C° 0 mm 2 mps 710 mmHg 78%
    07:00 +19°C° 0 mm 2 mps 710 mmHg 75%
    08:00 +20°C° 0 mm 3 mps 710 mmHg 69%
    09:00 +21°C° 0 mm 3 mps 711 mmHg 64%
    10:00 +24°C° 0 mm 3 mps 711 mmHg 58%
    11:00 +23°C° 0 mm 4 mps 711 mmHg 55%
    12:00 +25°C° 0 mm 4 mps 711 mmHg 53%
    13:00 +26°C° 0 mm 4 mps 711 mmHg 50%
    14:00 +26°C° 0 mm 4 mps 711 mmHg 50%
    15:00 +26°C° 0 mm 4 mps 711 mmHg 50%
    16:00 +26°C° 0 mm 4 mps 710 mmHg 50%
    17:00 +23°C° 0 mm 4 mps 711 mmHg 56%
    18:00 +22°C° 0 mm 3 mps 711 mmHg 62%
    19:00 +21°C° 0 mm 2 mps 711 mmHg 67%
    20:00 +19°C° 0 mm 2 mps 711 mmHg 69%
    21:00 +19°C° 0 mm 1 mps 711 mmHg 71%
    22:00 +18°C° 0 mm 1 mps 711 mmHg 73%
    23:00 +16°C° 0 mm 1 mps 711 mmHg 74%

    24 July, Tuesday

    Time Temperature Precipitation Wind Pressure Humidity
    00:00 +16°C° 0 mm 1 mps 711 mmHg 74%
    01:00 +16°C° 0 mm 1 mps 711 mmHg 75%
    02:00 +16°C° 0 mm 1 mps 711 mmHg 76%
    03:00 +15°C° 0 mm 1 mps 711 mmHg 78%
    04:00 +15°C° 0 mm 1 mps 711 mmHg 79%
    05:00 +16°C° 0 mm 1 mps 711 mmHg 77%
    06:00 +18°C° 0 mm 2 mps 711 mmHg 75%
    07:00 +19°C° 0 mm 2 mps 712 mmHg 74%
    08:00 +20°C° 0.1 mm 2 mps 712 mmHg 69%
    09:00 +21°C° 0.1 mm 3 mps 712 mmHg 65%
    10:00 +22°C° 0.1 mm 3 mps 712 mmHg 61%
    11:00 +23°C° 0.1 mm 4 mps 711 mmHg 60%
    12:00 +23°C° 0.1 mm 4 mps 711 mmHg 58%
    13:00 +23°C° 0.1 mm 4 mps 711 mmHg 56%
    14:00 +23°C° 0 mm 4 mps 711 mmHg 56%
    15:00 +23°C° 0 mm 4 mps 710 mmHg 56%
    16:00 +23°C° 0 mm 4 mps 710 mmHg 55%
    17:00 +22°C° 0 mm 3 mps 710 mmHg 61%
    18:00 +21°C° 0 mm 3 mps 710 mmHg 67%
    19:00 +20°C° 0 mm 2 mps 710 mmHg 73%
    20:00 +18°C° 0 mm 2 mps 710 mmHg 78%
    21:00 +18°C° 0 mm 1 mps 710 mmHg 82%
    22:00 +15°C° 0 mm 1 mps 710 mmHg 86%
    23:00 +15°C° 0 mm 1 mps 709 mmHg 87%

    25 July, Wednesday

    Time Temperature Precipitation Wind Pressure Humidity
    00:00 +15°C° 0 mm 1 mps 709 mmHg 88%
    01:00 +14°C° 0 mm 1 mps 709 mmHg 88%
    02:00 +14°C° 0 mm 1 mps 709 mmHg 88%
    03:00 +14°C° 0 mm 1 mps 709 mmHg 89%
    04:00 +14°C° 0 mm 1 mps 709 mmHg 89%
    05:00 +15°C° 0 mm 1 mps 710 mmHg 84%
    06:00 +18°C° 0 mm 1 mps 710 mmHg 79%
    07:00 +19°C° 0 mm 1 mps 710 mmHg 74%
    08:00 +21°C° 0 mm 1 mps 711 mmHg 68%
    09:00 +21°C° 0 mm 2 mps 711 mmHg 63%
    10:00 +23°C° 0 mm 2 mps 711 mmHg 57%
    11:00 +24°C° 0 mm 2 mps 711 mmHg 54%
    12:00 +25°C° 0 mm 2 mps 710 mmHg 51%
    13:00 +26°C° 0 mm 2 mps 710 mmHg 48%
    14:00 +25°C° 0 mm 2 mps 710 mmHg 50%
    15:00 +25°C° 0 mm 2 mps 710 mmHg 51%
    16:00 +25°C° 0 mm 2 mps 710 mmHg 53%
    17:00 +24°C° 0.1 mm 2 mps 710 mmHg 58%
    18:00 +23°C° 0.1 mm 2 mps 710 mmHg 64%
    19:00 +21°C° 0.1 mm 1 mps 710 mmHg 69%
    20:00 +20°C° 0 mm 1 mps 710 mmHg 72%
    21:00 +19°C° 0 mm 1 mps 710 mmHg 75%
    22:00 +18°C° 0 mm 1 mps 710 mmHg 78%
    23:00 +16°C° 0 mm 1 mps 710 mmHg 78%
    Show more